Hatteras, NC

10:19 PM EST on December 11, 2019 (GMT -0500)
Mitchell

Weather History for KHSE - October, 2019

Change the Weather History Date:

Sunday, October 20, 2019

  Actual Average Record
Temperature  
Mean Temperature 70 °F 65 °F  
Max Temperature 78 °F 71 °F 84 °F (1910)
Min Temperature 62 °F 58 °F 41 °F (1992)
Degree Days  
Heating Degree Days 0 3  
Month to date heating degree days 14 31  
Since 1 July heating degree days 14 34  
Cooling Degree Days 5 2  
Month to date cooling degree days 53 79  
Year to date cooling degree days 2131 1671  
Growing Degree Days 20 (Base 50)    
Moisture  
Dew Point 69 °F    
Average Humidity 95    
Maximum Humidity 100    
Minimum Humidity 73    
Precipitation  
Precipitation 1.12 in 0.17 in 4.82 in (1897)
Month to date precipitation 5.40 3.48  
Year to date precipitation 47.26 46.92  
Snow  
Snow 0.00 in - - ()
Month to date snowfall 0.0  
Since 1 July snowfall 0.0  
Snow Depth 0.00 in    
Sea Level Pressure  
Sea Level Pressure 29.78 in    
Wind  
Wind Speed 19 mph ()    
Max Wind Speed 36 mph    
Max Gust Speed 51 mph    
Visibility 4.8 miles    
Events Fog , Rain    
T = Trace of Precipitation, MM = Missing Value Source: Averaged Metar Reports

Daily Weather History Graph

Daily Weather History Graph

Search for Another Location

Airport or City:

Astronomy

Oct. 20, 2019 Rise Set
Actual Time 7:12 AM EDT 6:21 PM EDT
Civil Twilight 6:46 AM EDT 6:47 PM EDT
Nautical Twilight 6:17 AM EDT 7:16 PM EDT
Astronomical Twilight 5:47 AM EDT 7:46 PM EDT
Moon 11:36 PM EDT (10/20) 1:29 PM EDT (10/20)
Length of Visible Light 12h 00m
Length of Day
11h 08m
Waning Gibbous, 59% of the Moon is Illuminated
Oct 20
Waning Gibbous
Oct 21
Last Quarter
Oct 27
New
Nov 4
First Quarter
Nov 12
Full

Hourly Weather History & Observations

Time (EDT) Temp. Dew Point Humidity Pressure Visibility Wind Dir Wind Speed Gust Speed Precip Events Conditions
12:51 AM 72.0 °F 63.0 °F 73% 29.96 in 10.0 mi SSE 15.0 mph - N/A   Overcast
1:51 AM 71.1 °F 64.0 °F 78% 29.94 in 10.0 mi SE 12.7 mph 23.0 mph 0.00 in Rain Light Rain
2:51 AM 71.1 °F 64.9 °F 81% 29.92 in 9.0 mi SSE 17.3 mph 26.5 mph 0.01 in Rain Light Rain
3:51 AM 72.0 °F 64.9 °F 78% 29.88 in 10.0 mi SE 17.3 mph - 0.01 in   Mostly Cloudy
4:18 AM 72.0 °F 64.9 °F 78% 29.88 in 10.0 mi SE 16.1 mph 28.8 mph N/A   Overcast
4:51 AM 72.0 °F 66.9 °F 84% 29.88 in 10.0 mi SSE 18.4 mph 28.8 mph 0.00 in   Overcast
5:16 AM 73.0 °F 66.9 °F 81% 29.87 in 10.0 mi SSE 20.7 mph 29.9 mph 0.01 in   Overcast
5:51 AM 73.0 °F 68.0 °F 84% 29.87 in 6.0 mi SSE 19.6 mph 28.8 mph 0.01 in Rain Light Rain
6:05 AM 71.1 °F 68.0 °F 90% 29.87 in 2.5 mi SSE 23.0 mph - 0.04 in Rain Rain
6:28 AM 70.0 °F 70.0 °F 100% 29.86 in 2.5 mi SSE 19.6 mph 29.9 mph 0.13 in Rain Heavy Rain
6:41 AM 70.0 °F 69.1 °F 97% 29.85 in 2.5 mi SSE 18.4 mph 29.9 mph 0.17 in Rain Rain
6:51 AM 70.0 °F 69.1 °F 97% 29.85 in 2.5 mi SSE 20.7 mph 28.8 mph 0.19 in Rain Heavy Rain
7:18 AM 70.0 °F 69.1 °F 97% 29.84 in 2.5 mi SSE 25.3 mph 34.5 mph 0.07 in Rain Heavy Rain
7:37 AM 70.0 °F 70.0 °F 100% 29.83 in 1.8 mi SSE 24.2 mph 35.7 mph 0.14 in Rain Heavy Rain
7:51 AM 70.0 °F 70.0 °F 100% 29.83 in 3.0 mi SSE 23.0 mph 33.4 mph 0.17 in Rain Light Rain
8:00 AM 70.0 °F 70.0 °F 100% 29.82 in 2.5 mi SSE 27.6 mph 38.0 mph 0.01 in Rain Rain
8:08 AM 70.0 °F 70.0 °F 100% 29.83 in 2.5 mi SSE 25.3 mph 38.0 mph 0.02 in Rain Light Rain
8:51 AM 71.1 °F 70.0 °F 96% 29.82 in 1.5 mi SSE 28.8 mph 41.4 mph 0.10 in Rain Rain
8:59 AM 70.0 °F 69.1 °F 97% 29.82 in 1.8 mi SSE 28.8 mph 41.4 mph 0.02 in Rain Light Rain
9:01 AM 70.0 °F 69.1 °F 97% 29.81 in 2.0 mi SSE 29.9 mph 41.4 mph 0.02 in Rain Light Rain
9:10 AM 70.0 °F 69.1 °F 97% 29.81 in 2.5 mi SSE 28.8 mph 44.9 mph 0.03 in Rain Light Rain
9:15 AM 69.1 °F 68.0 °F 96% 29.81 in 3.0 mi SSE 29.9 mph 50.6 mph 0.03 in Rain Light Rain
9:28 AM 70.0 °F 69.1 °F 97% 29.81 in 1.8 mi SSE 33.4 mph 46.0 mph 0.04 in Rain Rain
9:51 AM 69.1 °F 69.1 °F 100% 29.81 in 1.0 mi SSE 32.2 mph 44.9 mph 0.11 in Rain Heavy Rain
10:02 AM 69.1 °F 69.1 °F 100% 29.80 in 0.5 mi SE 29.9 mph 43.7 mph 0.12 in Fog , Rain Heavy Rain
10:27 AM 70.0 °F 70.0 °F 100% 29.79 in 1.5 mi SSE 28.8 mph 41.4 mph 0.28 in Rain Light Rain
10:38 AM 70.0 °F 70.0 °F 100% 29.79 in 1.0 mi SE 24.2 mph 41.4 mph 0.32 in Rain Rain
10:45 AM 69.8 °F 69.8 °F 100% 29.79 in 2.0 mi SSE 29.9 mph 42.6 mph 0.32 in Rain Light Rain
10:51 AM 70.0 °F 70.0 °F 100% 29.78 in 1.8 mi SSE 31.1 mph 42.6 mph 0.33 in Rain Rain
11:23 AM 72.0 °F 72.0 °F 100% 29.76 in 2.5 mi SSE 29.9 mph 42.6 mph 0.03 in Rain Light Rain
11:30 AM 73.0 °F 72.0 °F 96% 29.75 in 4.0 mi SSE 29.9 mph 42.6 mph 0.03 in Rain Light Rain
11:37 AM 73.0 °F 72.0 °F 96% 29.75 in 3.0 mi SSE 29.9 mph 41.4 mph 0.03 in Rain Light Rain
11:39 AM 73.0 °F 72.0 °F 96% 29.75 in 2.5 mi SSE 25.3 mph 41.4 mph 0.03 in Rain Light Rain
11:44 AM 71.6 °F 71.6 °F 100% 29.75 in 1.5 mi SSE 33.4 mph 43.7 mph N/A Rain Rain
11:51 AM 72.0 °F 72.0 °F 100% 29.73 in 0.8 mi SE 26.5 mph 43.7 mph 0.07 in Rain Rain
11:54 AM 72.0 °F 72.0 °F 100% 29.73 in 1.2 mi SE 27.6 mph 43.7 mph 0.00 in Rain Light Rain
11:59 AM 72.0 °F 72.0 °F 100% 29.73 in 2.0 mi SE 27.6 mph 40.3 mph 0.00 in Rain Light Rain
12:16 PM 72.0 °F 72.0 °F 100% 29.73 in 1.8 mi SE 27.6 mph 40.3 mph 0.01 in Rain Rain
12:32 PM 72.0 °F 72.0 °F 100% 29.72 in 1.0 mi SE 25.3 mph 35.7 mph 0.05 in Rain Heavy Rain
12:43 PM 73.0 °F 73.0 °F 100% 29.72 in 1.2 mi SSE 29.9 mph 36.8 mph 0.07 in Rain Light Rain
12:45 PM 73.4 °F 73.4 °F 100% 29.72 in 1.5 mi South 26.5 mph 36.8 mph 0.08 in Rain Light Rain
12:51 PM 73.0 °F 73.0 °F 100% 29.72 in 1.5 mi South 23.0 mph 36.8 mph 0.08 in Rain Light Rain
12:57 PM 73.0 °F 73.0 °F 100% 29.71 in 2.0 mi South 28.8 mph 38.0 mph 0.01 in Rain Light Rain
1:04 PM 73.9 °F 73.9 °F 100% 29.70 in 3.0 mi SSE 25.3 mph 41.4 mph 0.01 in   Overcast
1:06 PM 73.9 °F 73.9 °F 100% 29.70 in 2.5 mi South 26.5 mph 41.4 mph 0.01 in   Overcast
1:13 PM 73.9 °F 73.9 °F 100% 29.70 in 2.5 mi SSE 24.2 mph 38.0 mph 0.01 in   Overcast
1:35 PM 73.9 °F 73.9 °F 100% 29.70 in 3.0 mi South 17.3 mph - 0.01 in   Overcast
1:51 PM 75.0 °F 73.9 °F 96% 29.69 in 3.0 mi South 16.1 mph - 0.01 in   Mostly Cloudy
2:51 PM 77.0 °F 72.0 °F 84% 29.67 in 5.0 mi SSW 13.8 mph - N/A   Haze
3:49 PM 77.0 °F 71.6 °F 83% 29.67 in 4.0 mi SW 9.2 mph 19.6 mph N/A   Haze
3:51 PM 77.0 °F 72.0 °F 84% 29.67 in 4.0 mi SW 10.4 mph 19.6 mph N/A   Haze
4:21 PM 75.9 °F 71.1 °F 85% 29.66 in 5.0 mi SW 12.7 mph 21.9 mph N/A   Haze
4:51 PM 75.0 °F 71.1 °F 87% 29.67 in 6.0 mi SW 13.8 mph 20.7 mph N/A   Clear
5:51 PM 73.0 °F 70.0 °F 90% 29.68 in 5.0 mi WSW 12.7 mph 23.0 mph N/A   Mostly Cloudy
6:11 PM 73.0 °F 70.0 °F 90% 29.68 in 6.0 mi WSW 15.0 mph 23.0 mph N/A   Overcast
6:26 PM 72.0 °F 70.0 °F 93% 29.69 in 6.0 mi WSW 12.7 mph 23.0 mph N/A   Overcast
6:33 PM 71.1 °F 71.1 °F 100% 29.69 in 5.0 mi West 10.4 mph 21.9 mph 0.00 in Rain Light Rain
6:51 PM 69.1 °F 69.1 °F 100% 29.70 in 8.0 mi West 10.4 mph 23.0 mph 0.00 in Rain Light Rain
7:04 PM 68.0 °F 68.0 °F 100% 29.71 in 10.0 mi West 12.7 mph 21.9 mph 0.00 in   Overcast
7:51 PM 66.0 °F 64.9 °F 96% 29.73 in 10.0 mi WNW 10.4 mph 26.5 mph 0.02 in   Overcast
8:44 PM 64.9 °F 63.0 °F 93% 29.76 in 10.0 mi WNW 9.2 mph 19.6 mph N/A   Overcast
8:51 PM 64.9 °F 63.0 °F 93% 29.76 in 10.0 mi WNW 9.2 mph - N/A   Overcast
9:34 PM 64.0 °F 63.0 °F 96% 29.78 in 10.0 mi WNW 10.4 mph 20.7 mph N/A   Overcast
9:51 PM 64.0 °F 63.0 °F 96% 29.79 in 9.0 mi WNW 13.8 mph 24.2 mph N/A   Overcast
10:31 PM 63.0 °F 62.1 °F 97% 29.80 in 10.0 mi NW 12.7 mph 21.9 mph N/A   Overcast
10:34 PM 63.0 °F 62.1 °F 97% 29.81 in 10.0 mi NW 13.8 mph 23.0 mph N/A   Overcast
10:38 PM 63.0 °F 62.1 °F 97% 29.81 in 10.0 mi WNW 13.8 mph 23.0 mph N/A   Overcast
10:46 PM 62.6 °F 62.6 °F 100% 29.81 in 10.0 mi WNW 15.0 mph 26.5 mph N/A   Overcast
10:51 PM 63.0 °F 62.1 °F 97% 29.81 in 10.0 mi WNW 11.5 mph 23.0 mph N/A   Overcast
11:36 PM 63.0 °F 61.0 °F 93% 29.83 in 10.0 mi NW 12.7 mph 20.7 mph N/A   Overcast
11:51 PM 62.1 °F 61.0 °F 96% 29.83 in 10.0 mi NW 12.7 mph 23.0 mph N/A   Overcast